Location: Arborea
(39.7744°N, 8.5819°E)
Time: 23:26:08
(UTC+00:00)

Cosmos 304 Rocket - Pass Details

Date: 24 October 2021
Orbit: 678 x 688 km, 74.0° (Epoch: 06 December)

Event Time Altitude Azimuth Distance (km) Brightness Sun altitude
Rises 17:16:21 0° 184° (S) 3,020 7.3 -8.9°
Reaches altitude 10° 17:18:41 10° 180° (S) 2,110 6.4 -9.3°
Maximum altitude 17:23:17 52° 104° (ESE) 847 3.9 -10.2°
Drops below altitude 10° 17:27:55 10° 29° (NNE) 2,131 6.0 -11.1°
Sets 17:30:17 0° 25° (NNE) 3,052 6.8 -11.5°
